Location: Carr Mill
(33.2054°N, 85.9439°W)
Time: 21:54:59
(UTC+00:00)

STARLINK-2715 - Pass Details

Date: 24 June 2021
Orbit: 348 x 351 km, 53.0° (Epoch: 04 August)

Event Time Altitude Azimuth Distance (km) Brightness Sun altitude
Exits shadow 08:11:12 24° 59° (ENE) 762 5.0 -23.7°
Drops below altitude 10° 08:12:34 10° 51° (NE) 1,301 6.6 -23.5°
Enters shadow 09:06:24 -72° 224° (SW) 12,502 10.5 -16.0°
